Flag for Saudi Arabia Weather past 2 weeks in Qatif, Saudi Arabia

Now
100 °F

Sunny.


Feels Like: 100 °F
Forecast: 85 / 101 °F
Wind: 9 mph from South

Location: King Fahd International Airport

Current Time: Oct 2, 2014 at 12:06:00 PM

Latest Report: Oct 2, 2014 at 11:00 AM


Visibility: 10 mi

Pressure: 29.86 "Hg

Humidity: 24%

Dew point: 57 °F

Location of QatifLocation

Historic Weather in Qatif — Graph

°F

Qatif temperature yesterday

Maximum temperature yesterday: 100 °F (at 4:00 PM)
Minimum temperature yesterday: 79 °F (at 3:00 AM)
Average temperature yesterday: 89 °F

Past Weeks' High & Low Weather Summary

 TemperatureHumidityPressure
High109 °F (Sep 17, 2:00 PM)83% (Sep 22, 6:00 AM)29.89 "Hg (Sep 22, 6:00 AM)
Low73 °F (Sep 21, 6:00 AM)7% (Sep 21, 2:00 PM)29.59 "Hg (Sep 17, 1:00 PM)
Average89 °F43%29.75 "Hg
* Reported Sep 17 11:00 AM — Oct 2 11:00 AM, Qatif, Weather by CustomWeather, © 2014

Note: Actual official high and low records may vary slightly from our data, if they occured in-between our weather recording intervals... More about our weather records

Advertising

Qatif weather history for previous 24 hours

 ConditionsComfort  
Time TempWeatherWind HumidityBarometerVisibility
11:00 AM
Oct 2
100 °FSunny.9 mph24%29.86 "Hg10 mi
10:00 AM99 °FSunny.10 mph27%29.89 "Hg10 mi
9:00 AM93 °FSunny.9 mph44%29.89 "Hg10 mi
8:00 AM86 °FSunny.8 mph62%29.89 "Hg10 mi
7:00 AM82 °FSunny.7 mph70%29.86 "Hg10 mi
6:00 AM79 °FSunny.6 mph74%29.86 "Hg4 mi
5:00 AM79 °FClear.6 mph74%29.83 "Hg4 mi
4:00 AM81 °FClear.6 mph70%29.83 "Hg4 mi
3:00 AM82 °FClear.5 mph70%29.83 "Hg10 mi
2:00 AM82 °FClear.6 mph70%29.80 "Hg10 mi
1:00 AM84 °FClear.5 mph66%29.80 "Hg10 mi
12:00 AM84 °FClear.7 mph66%29.83 "Hg10 mi
11:00 PM
Oct 1
88 °FClear.7 mph62%29.83 "Hg10 mi
10:00 PM88 °FClear.9 mph59%29.83 "Hg10 mi
9:00 PM90 °FClear.9 mph55%29.83 "Hg10 mi
8:00 PM90 °FClear.13 mph55%29.83 "Hg10 mi
7:00 PM90 °FClear.14 mph55%29.80 "Hg10 mi
6:00 PM93 °FClear.15 mph47%29.77 "Hg10 mi
5:00 PM99 °FSunny.15 mph25%29.77 "Hg10 mi
4:00 PM100 °FSunny.17 mph24%29.77 "Hg10 mi
3:00 PM99 °FSunny.14 mph25%29.77 "Hg10 mi
2:00 PM99 °FPassing clouds.8 mph27%29.77 "HgN/A
1:00 PM99 °FPassing clouds.3 mph29%29.80 "HgN/A
12:00 PM99 °FSunny.5 mph29%29.83 "Hg10 mi
Weather by CustomWeather, © 2014

See weather overviewHow to use our weather pages